Back to catalog

STARLINK-38173

AliveCommunicationsSSO
NORAD 100151·PAYLOAD·🇺🇸 United States

Launched Jul 25, 2026 from Vandenberg Space Force Base

Loading…

Next Passes (next 24 hours)

TLE

FreshSource: Space-Track

Epoch: Sep 14, 2026, 14:55 UTC

1 A0151U 26171D   26257.62164995 -.00868652  00000-0 -28096-1 0  9991
2 A0151  97.2834 290.1222 0000815 165.7029 194.4238 15.34669687  7995

Track STARLINK-38173 in real time with AllMySat

Download on the App Store